Washington County, Texas, United States
Lat: 30.22N, Lon: 96.44W
Wx Zone: TXZ197
Local Info
Past Weather Observations for Today

NOTE: This archive is for the closest National Weather Service station to Washington County. Information may differ from the station used for current weather conditions.

Time Weather Temperature Dewpoint Humidity Pressure Winds Precip Visibility
20:55
Clear
72°F / 22°C 64°F / 18°C 78% 29.86 in
(1011 mb)
SSE 11.5 mph
(SSE 19 kph)
- 10SM
20:35
Clear
72°F / 22°C 64°F / 18°C 78% 29.86 in
(1011 mb)
SSE 8.1 mph
(SSE 13 kph)
- 10SM
20:15
Clear
73°F / 23°C 64°F / 18°C 74% 29.83 in
(1010 mb)
SSE 8.1 mph
(SSE 13 kph)
- 10SM
19:55
Clear
73°F / 23°C 63°F / 17°C 69% 29.83 in
(1010 mb)
SSE 8.1 mph
(SSE 13 kph)
- 10SM
19:35
Clear
75°F / 24°C 63°F / 17°C 65% 29.83 in
(1010 mb)
SSE 8.1 mph
(SSE 13 kph)
- 10SM
19:15
Clear
75°F / 24°C 63°F / 17°C 65% 29.83 in
(1010 mb)
SSE 9.2 mph
(SSE 15 kph)
- 10SM
18:55
Clear
77°F / 25°C 63°F / 17°C 61% 29.83 in
(1010 mb)
SSE 10.4 mph
(SSE 17 kph)
- 10SM
18:35
Clear
77°F / 25°C 64°F / 18°C 65% 29.83 in
(1010 mb)
S 11.5 mph
(S 19 kph)
- 10SM
18:15
Clear
81°F / 27°C 64°F / 18°C 58% 29.8 in
(1009 mb)
S 12.7 mph
(S 20 kph)
- 10SM
17:55
Clear
81°F / 27°C 63°F / 17°C 54% 29.8 in
(1009 mb)
S 13.8 mph
(S 22 kph)
- 10SM
17:35
Clear
82°F / 28°C 61°F / 16°C 48% 29.8 in
(1009 mb)
SE 11.5 mph
(SE 19 kph)
- 10SM
17:15
Clear
82°F / 28°C 61°F / 16°C 48% 29.8 in
(1009 mb)
SE 9.2 mph
(SE 15 kph)
- 10SM
16:55
Clear
82°F / 28°C 61°F / 16°C 48% 29.8 in
(1009 mb)
SE 8.1 mph
(SE 13 kph)
- 10SM
16:35
Clear
82°F / 28°C 61°F / 16°C 48% 29.83 in
(1010 mb)
SE 12.7 mph
(SE 20 kph)
- 10SM
16:15
Clear
82°F / 28°C 61°F / 16°C 48% 29.83 in
(1010 mb)
SSE 8.1 mph
(SSE 13 kph)
- 10SM
15:55
Clear
84°F / 29°C 59°F / 15°C 43% 29.83 in
(1010 mb)
SSE 9.2 mph
(SSE 15 kph)
- 10SM
15:35
Clear
84°F / 29°C 59°F / 15°C 43% 29.83 in
(1010 mb)
SE 6.9 mph
(SE 11 kph)
- 10SM
15:15
Clear
82°F / 28°C 59°F / 15°C 45% 29.83 in
(1010 mb)
SSE 10.4 mph
(SSE 17 kph)
- 10SM
14:55
Partly Cloudy
84°F / 29°C 63°F / 17°C 48% 29.86 in
(1011 mb)
SSE 9.2 mph
(SSE 15 kph)
- 10SM
14:35
Clear
82°F / 28°C 63°F / 17°C 51% 29.89 in
(1012 mb)
SE 10.4 mph
(SE 17 kph)
- 10SM
14:15
Clear
82°F / 28°C 63°F / 17°C 51% 29.89 in
(1012 mb)
SSE 13.8 mph
(SSE 22 kph)
- 10SM
13:55
Clear
81°F / 27°C 63°F / 17°C 54% 29.89 in
(1012 mb)
SE 10.4 mph
(SE 17 kph)
- 10SM
13:35
Partly Cloudy
81°F / 27°C 63°F / 17°C 54% 29.92 in
(1013 mb)
SSE 10.4 mph
(SSE 17 kph)
- 10SM
13:15
Partly Cloudy
81°F / 27°C 66°F / 19°C 62% 29.92 in
(1013 mb)
SE 11.5 mph
(SE 19 kph)
- 10SM
12:55
Partly Cloudy
79°F / 26°C 66°F / 19°C 65% 29.92 in
(1013 mb)
SE 10.4 mph
(SE 17 kph)
- 10SM
12:35
Partly Cloudy
79°F / 26°C 66°F / 19°C 65% 29.92 in
(1013 mb)
SE 10.4 mph
(SE 17 kph)
- 10SM
12:15
Partly Cloudy
77°F / 25°C 66°F / 19°C 69% 29.95 in
(1014 mb)
S 11.5 mph
(S 19 kph)
- 10SM
11:35
Partly Cloudy
77°F / 25°C 66°F / 19°C 69% 29.95 in
(1014 mb)
SE 13.8 mph
(SE 22 kph)
- 10SM
11:15
Partly Cloudy
77°F / 25°C 68°F / 20°C 74% 29.95 in
(1014 mb)
SE 11.5 mph
(SE 19 kph)
- 10SM
10:55
Partly Cloudy
77°F / 25°C 68°F / 20°C 74% 29.98 in
(1015 mb)
SE 10.4 mph
(SE 17 kph)
- 10SM
10:35
Clear
77°F / 25°C 68°F / 20°C 74% 29.98 in
(1015 mb)
SSE 6.9 mph
(SSE 11 kph)
- 10SM
10:15
Clear
75°F / 24°C 66°F / 19°C 74% 29.98 in
(1015 mb)
SE 8.1 mph
(SE 13 kph)
- 10SM
09:55
Clear
75°F / 24°C 66°F / 19°C 74% 29.98 in
(1015 mb)
SSE 8.1 mph
(SSE 13 kph)
- 10SM
09:35
Clear
72°F / 22°C 70°F / 21°C 94% 29.98 in
(1015 mb)
SSE 8.1 mph
(SSE 13 kph)
- 10SM
09:15
Partly Cloudy
68°F / 20°C 68°F / 20°C 100% 29.98 in
(1015 mb)
S 8.1 mph
(S 13 kph)
- 10SM
08:55
Overcast
Fog And Mist
68°F / 20°C 66°F / 19°C 94% 29.98 in
(1015 mb)
S 5.8 mph
(S 9 kph)
- 4SM
08:35
Overcast
Fog And Mist
66°F / 19°C 66°F / 19°C 100% 29.98 in
(1015 mb)
SSE 5.8 mph
(SSE 9 kph)
- 1 1/2SM
08:15
Overcast
Fog
66°F / 19°C 66°F / 19°C 100% 29.98 in
(1015 mb)
SSE 4.6 mph
(SSE 7 kph)
- 1/2SM
07:55
Overcast
Fog
66°F / 19°C 64°F / 18°C 94% 29.98 in
(1015 mb)
SE 4.6 mph
(SE 7 kph)
- 1/4SM
07:35
Overcast
Fog
66°F / 19°C 64°F / 18°C 94% 29.98 in
(1015 mb)
SE 3.5 mph
(SE 6 kph)
- M1/4SM
07:15
Overcast
Fog
64°F / 18°C 64°F / 18°C 100% 29.98 in
(1015 mb)
Calm - M1/4SM
06:55
Overcast
Fog
64°F / 18°C 63°F / 17°C 94% 29.95 in
(1014 mb)
Calm - M1/4SM
06:35
Overcast
Fog
61°F / 16°C 61°F / 16°C 100% 29.98 in
(1015 mb)
Calm - M1/4SM
06:15
Overcast
Fog
61°F / 16°C 59°F / 15°C 94% 29.95 in
(1014 mb)
Calm - 1/4SM
05:55
Overcast
Fog
61°F / 16°C 59°F / 15°C 94% 29.95 in
(1014 mb)
Calm - 1/4SM
05:35
Overcast
Fog
59°F / 15°C 57°F / 14°C 94% 29.95 in
(1014 mb)
Calm - 1/2SM
05:15
Clear
Fog And Mist
61°F / 16°C 59°F / 15°C 94% 29.95 in
(1014 mb)
Calm - 5SM
04:55
Obscured
Fog And Mist
61°F / 16°C 59°F / 15°C 94% 29.95 in
(1014 mb)
Calm - 1SM
04:35
Fog And Mist
61°F / 16°C 61°F / 16°C 100% 29.95 in
(1014 mb)
Calm - 2 1/2SM
04:15
Fog And Mist
63°F / 17°C 61°F / 16°C 94% 29.95 in
(1014 mb)
Calm - 2 1/2SM
03:55
Fog And Mist
61°F / 16°C 59°F / 15°C 94% 29.95 in
(1014 mb)
Calm - 3SM
03:35
Clear
63°F / 17°C 61°F / 16°C 94% 29.95 in
(1014 mb)
Calm - 7SM
03:15
Clear
63°F / 17°C 61°F / 16°C 94% 29.95 in
(1014 mb)
Calm - 10SM
02:55
Clear
64°F / 18°C 61°F / 16°C 88% 29.95 in
(1014 mb)
Calm - 10SM
02:35
Clear
63°F / 17°C 61°F / 16°C 94% 29.95 in
(1014 mb)
Calm - 10SM
02:15
Clear
63°F / 17°C 59°F / 15°C 88% 29.95 in
(1014 mb)
Calm - 10SM
01:55
Clear
61°F / 16°C 59°F / 15°C 94% 29.95 in
(1014 mb)
Calm - 10SM
01:35
Clear
63°F / 17°C 61°F / 16°C 94% 29.95 in
(1014 mb)
Calm - 10SM
01:15
Clear
61°F / 16°C 59°F / 15°C 94% 29.95 in
(1014 mb)
Calm - 10SM
00:55
Clear
61°F / 16°C 59°F / 15°C 94% 29.95 in
(1014 mb)
Calm - 10SM
00:35
Clear
63°F / 17°C 59°F / 15°C 88% 29.95 in
(1014 mb)
Calm - 10SM
00:15
Clear
63°F / 17°C 59°F / 15°C 88% 29.95 in
(1014 mb)
Calm - 10SM
Time Weather Temperature Dewpoint Humidity Pressure Winds Precip Visibility


Weather for websites

WeatherForYou.com, LLC is not responsible for any damages or problems caused by this service. Current weather conditions are obtained from the closest station including government and personal stations which may have varying degrees of accuracy. Weather forecasts are derived from the NOAA NDFD. Like all things, this site belongs to Jesus Christ... He just trusts me to maintain it. If you have any questions or comments email webmaster@weatherforyou.com

Copyright © 2014, WeatherForYou.com LLC. All rights reserved.